CW6344 Weather Reports


time (UTC)temp
C
wind
direction
speed
KPH
gust
KPH
rain 1hr
cm
rain 24hr
cm
rain mn
cm
humidity
%
barometer
mb
20260502180353 15 360 1.6 3.2 0.00 0.00 0.00 44 1012.8
20260502170423 13 42 0.0 1.6 0.00 0.00 0.00 56 1013.3
20260502163353 13 308 0.0 1.6 0.00 0.00 0.00 61 1013.6
20260502162423 13 279 0.0 0.0 0.00 0.00 0.00 62 1013.3
20260502161353 13 267 1.6 4.8 0.00 0.00 0.00 62 1013.6
20260502160353 13 15 0.0 0.0 0.00 0.00 0.00 64 1013.6
20260502151353 13 82 0.0 3.2 0.00 0.00 0.00 65 1014.1
20260502150353 12 15 0.0 1.6 0.00 0.00 0.00 64 1014.0
20260502130353 11 287 1.6 6.4 0.00 0.00 0.00 64 1013.5
20260502123353 11 348 1.6 4.8 0.00 0.00 0.00 67 1013.3
20260502122353 11 279 3.2 6.4 0.00 0.00 0.00 71 1013.4
20260502120353 11 344 0.0 1.6 0.00 0.00 0.00 74 1013.4
20260502115353 11 263 0.0 3.2 0.00 0.00 0.00 74 1013.4
20260502114353 11 44 0.0 1.6 0.00 0.00 0.00 73 1013.5
20260502113353 11 17 0.0 0.0 0.00 0.00 0.00 74 1013.5
20260502112353 11 230 1.6 3.2 0.00 0.00 0.00 72 1013.5
20260502111353 11 301 0.0 0.0 0.00 0.00 0.00 73 1013.4
20260502110353 11 360 0.0 4.8 0.00 0.00 0.00 73 1013.1
20260502105353 11 306 0.0 1.6 0.00 0.00 0.00 73 1013.1
20260502104353 11 304 1.6 1.6 0.00 0.00 0.00 74 1013.1
20260502102353 11 309 0.0 1.6 0.00 0.00 0.00 74 1012.9
20260502101353 12 77 0.0 3.2 0.00 0.00 0.00 73 1012.9
20260502100353 12 242 0.0 3.2 0.00 0.00 0.00 74 1012.8
20260502091353 11 330 0.0 1.6 0.00 0.00 0.00 79 1012.3
20260502090353 11 38 0.0 3.2 0.00 0.00 0.00 80 1012.3
20260502071353 10 273 0.0 0.0 0.00 0.00 0.00 87 1011.6
20260502070353 10 273 0.0 0.0 0.00 0.00 0.00 87 1011.5
20260502065353 10 273 0.0 0.0 0.00 0.00 0.00 86 1011.6
20260502064423 10 273 0.0 0.0 0.00 0.00 0.00 85 1011.6
20260502063353 11 273 0.0 0.0 0.00 0.00 0.00 85 1011.6
20260502060353 11 273 0.0 0.0 0.00 0.00 0.00 84 1012.2
20260502055353 11 273 0.0 1.6 0.00 0.00 0.00 84 1012.5
20260502054353 11 273 0.0 0.0 0.00 0.00 0.00 84 1012.5
20260502053353 12 273 0.0 1.6 0.00 0.00 0.00 83 1012.5
20260502052353 12 273 1.6 1.6 0.00 0.00 0.00 82 1012.3
20260502051353 12 273 0.0 0.0 0.00 0.00 0.00 82 1012.1
20260502050353 12 236 0.0 0.0 0.00 0.00 0.00 82 1012.0
20260502045353 12 236 1.6 3.2 0.00 0.00 0.00 82 1012.0
20260502044353 12 223 0.0 0.0 0.00 0.00 0.00 82 1012.0
20260502043354 12 76 0.0 0.0 0.00 0.00 0.00 82 1012.0
20260502042354 12 48 0.0 0.0 0.00 0.00 0.00 82 1012.0
20260502041353 12 48 0.0 0.0 0.00 0.00 0.00 81 1012.1
20260502040353 12 360 0.0 0.0 0.00 0.00 0.00 81 1012.0
20260502035353 12 360 0.0 0.0 0.00 0.00 0.00 81 1012.0
20260502034354 12 360 0.0 0.0 0.00 0.00 0.00 81 1012.1
20260502033354 12 360 0.0 0.0 0.00 0.00 0.00 80 1012.0
20260502032354 12 5 0.0 0.0 0.00 0.00 0.00 79 1012.0
20260502031354 12 90 0.0 0.0 0.00 0.00 0.00 79 1011.9
20260502030354 12 93 0.0 0.0 0.00 0.00 0.00 79 1011.7
20260502025424 12 93 0.0 0.0 0.00 0.00 0.00 78 1011.7
20260502024354 12 93 0.0 0.0 0.00 0.00 0.00 77 1011.8
20260502023354 12 93 0.0 0.0 0.00 0.00 0.00 77 1012.0
20260502022354 12 93 0.0 0.0 0.00 0.00 0.00 77 1012.0
20260502021424 12 93 0.0 0.0 0.00 0.00 0.00 77 1012.1
20260502020354 12 120 0.0 0.0 0.00 0.00 0.00 77 1012.1
20260502015354 12 120 0.0 0.0 0.00 0.00 0.00 76 1012.1
20260502014354 12 123 0.0 0.0 0.00 0.00 0.00 76 1012.2
20260502013354 12 82 0.0 0.0 0.00 0.00 0.00 75 1012.0
20260502012354 12 82 0.0 0.0 0.00 0.00 0.00 74 1011.9
20260502011354 13 82 0.0 0.0 0.00 0.00 0.00 73 1011.7
20260502010354 13 82 0.0 0.0 0.00 0.00 0.00 72 1011.4
20260502005354 13 82 0.0 0.0 0.00 0.00 0.00 69 1011.3
20260502004354 13 82 1.6 1.6 0.00 0.00 0.00 68 1011.2
20260502003354 13 97 1.6 1.6 0.00 0.00 0.00 66 1011.2
20260502002355 13 136 0.0 1.6 0.00 0.00 0.00 65 1011.2
20260502001354 13 279 0.0 0.0 0.00 0.00 0.00 66 1011.3
20260502000354 13 279 0.0 0.0 0.00 0.00 0.00 64 1011.3
20260501235354 14 279 0.0 0.0 0.00 0.00 0.00 63 1011.2
20260501234354 15 279 0.0 0.0 0.00 0.00 0.00 60 1011.0
20260501233354 15 263 0.0 0.0 0.00 0.00 0.00 60 1011.0
20260501232354 15 263 0.0 0.0 0.00 0.00 0.00 59 1010.9
20260501231424 15 250 0.0 0.0 0.00 0.00 0.00 59 1010.9
20260501230354 16 131 0.0 1.6 0.00 0.00 0.00 57 1010.8
20260501225354 16 128 0.0 1.6 0.00 0.00 0.00 58 1010.8
20260501224354 16 96 1.6 1.6 0.00 0.00 0.00 58 1010.8
20260501223424 16 53 0.0 1.6 0.00 0.00 0.00 55 1010.9
20260501222354 16 34 0.0 1.6 0.00 0.00 0.00 55 1010.9
20260501221354 16 261 1.6 3.2 0.00 0.00 0.00 54 1011.1
20260501220354 16 69 0.0 0.0 0.00 0.00 0.00 53 1011.3
20260501215354 16 49 0.0 3.2 0.00 0.00 0.00 49 1011.2
20260501214354 17 80 1.6 1.6 0.00 0.00 0.00 48 1011.3
20260501213354 17 119 1.6 9.7 0.00 0.00 0.00 47 1011.3
20260501212354 17 67 1.6 4.8 0.00 0.00 0.00 45 1011.3
20260501211354 17 68 0.0 1.6 0.00 0.00 0.00 52 1011.3
20260501205424 18 43 1.6 1.6 0.00 0.00 0.00 47 1011.3
20260501203354 17 75 0.0 1.6 0.00 0.00 0.00 49 1011.7
20260501201354 18 110 0.0 3.2 0.00 0.00 0.00 45 1012.0
20260501200354 18 296 0.0 1.6 0.00 0.00 0.00 44 1012.2
20260501195354 18 86 0.0 3.2 0.00 0.00 0.00 45 1012.4
20260501193354 18 131 0.0 1.6 0.00 0.00 0.00 45 1012.6
20260501191354 18 249 3.2 3.2 0.00 0.00 0.00 48 1012.9
20260501185354 18 252 1.6 3.2 0.00 0.00 0.00 45 1013.2
20260501184354 17 173 1.6 3.2 0.00 0.00 0.00 46 1013.4
20260501183354 17 130 1.6 4.8 0.00 0.00 0.00 46 1013.5
20260501182354 17 78 0.0 3.2 0.00 0.00 0.00 46 1013.5
20260501181354 17 239 1.6 1.6 0.00 0.00 0.00 50 1013.6